Flag for U.S.A. Weather past 2 weeks in Philadelphia, Pennsylvania, U.S.A.

50 °F


Feels Like: 47 °F
Forecast: 50 / 63 °F
Wind: 8 mph from West

Location: Philadelphia International Airport

Current Time: Nov 28, 2015 at 1:34:07 AM

Latest Report: Nov 28, 2015 at 12:54 AM

Visibility: 10 mi

Pressure: 30.26 "Hg

Humidity: 80%

Dew point: 44 °F

Location of PhiladelphiaLocation

Historic Weather in Philadelphia — Graph


Philadelphia temperature yesterday

Maximum temperature yesterday: 65 °F (at 1:54 PM)
Minimum temperature yesterday: 40 °F (at 7:01 AM)
Average temperature yesterday: 52 °F

Past Weeks' High & Low Weather Summary

High69 °F (Nov 16, 12:54 PM)93% (Nov 27, 7:01 AM)30.81 "Hg (Nov 27, 7:01 AM)
Low33 °F (Nov 25, 4:54 AM)20% (Nov 20, 2:54 PM)29.66 "Hg (Nov 13, 12:54 AM)
Average50 °F55%30.27 "Hg
* Reported Nov 12 11:54 PM — Nov 27 11:54 PM, Philadelphia, Weather by CustomWeather, © 2015

Note: Actual official high and low records may vary slightly from our data, if they occured in-between our weather recording intervals... More about our weather records


Philadelphia weather history for previous 24 hours

Time TempWeatherWind HumidityBarometerVisibility
11:54 PM
Fri, Nov 27
54 °FOvercast.8 mph74%30.27 "Hg10 mi
10:54 PM54 °FHigh level clouds.5 mph74%30.28 "Hg10 mi
9:54 PM52 °FHigh level clouds.7 mph77%30.30 "Hg10 mi
8:54 PM55 °FPassing clouds.8 mph69%30.31 "Hg10 mi
7:54 PM56 °FPassing clouds.7 mph70%30.32 "Hg10 mi
6:54 PM56 °FPassing clouds.6 mph65%30.34 "Hg10 mi
5:54 PM57 °FPassing clouds.5 mph62%30.34 "Hg10 mi
4:54 PM60 °FPassing clouds.7 mph58%30.35 "Hg10 mi
3:54 PM64 °FPartly sunny.12 mph41%30.37 "Hg10 mi
2:54 PM65 °FPartly sunny.9 mph47%30.40 "Hg10 mi
1:54 PM65 °FPartly sunny.12 mph49%30.42 "Hg10 mi
12:54 PM62 °FPartly sunny.13 mph60%30.45 "Hg10 mi
11:54 AM60 °FPartly sunny.7 mph65%30.48 "Hg10 mi
10:54 AM56 °FPartly sunny.6 mph75%30.52 "Hg10 mi
9:54 AM49 °FFog.3 mph90%30.55 "Hg5 mi
8:54 AM47 °FFog.3 mph93%30.54 "Hg1 mi
8:02 AM45 °FFog.No wind93%30.54 "Hg1 mi
7:01 AM40 °FFog.3 mph93%30.57 "Hg1 mi
5:54 AM42 °FLow clouds.3 mph85%30.57 "Hg0 mi
4:54 AM42 °FPassing clouds.No wind89%30.56 "Hg7 mi
3:54 AM44 °FPassing clouds.No wind82%30.58 "Hg8 mi
3:03 AM42 °FPassing clouds.5 mph89%30.60 "Hg9 mi
1:54 AM44 °FPassing clouds.5 mph89%30.62 "Hg9 mi
Weather by CustomWeather, © 2015

See weather overviewHow to use our weather pages